Location: Narrabri
(30.3170°S, 149.7830°E)
Time: 16:01:09
(UTC+11:00)

Tiangong 1 - Visible Passes

Search period start: 18 December 2017 00:00
Search period end: 28 December 2017 00:00
Orbit: 274 x 301 km, 42.8° (Epoch: 17 December)

Date Brightness Start Highest point End Pass type
(mag) Time Alt. Az. Time Alt. Az. Time Alt. Az.
18 Dec 4.1 20:57:08 10° SSW 20:57:34 10° SSW 20:58:00 10° S visible
24 Dec 3.5 21:20:07 10° S 21:20:53 11° SSE 21:21:40 10° SE visible
25 Dec 2.9 21:22:29 10° SSW 21:24:16 17° SSE 21:25:12 15° SE visible
26 Dec 1.8 21:25:10 10° SW 21:27:30 31° SSE 21:27:57 28° SE visible
27 Dec 0.3 21:27:58 10° SW 21:30:31 77° SSE 21:30:40 72° ESE visible
